Weather History for Omaha, NE

Change the Weather History Date:

Friday, March 9, 2012

  Actual Average Record
Temperature  
Mean Temperature 44 °F 37 °F  
Max Temperature 61 °F 48 °F 79 °F (1986)
Min Temperature 27 °F 26 °F -1 °F (1886)
Degree Days  
Heating Degree Days 21 28  
Month to date heating degree days 208 271  
Since 1 July heating degree days 4389 5069  
Cooling Degree Days 0 0  
Month to date cooling degree days 0 0  
Year to date cooling degree days 0 0  
Moisture  
Dew Point 20 °F    
Average Humidity 47    
Maximum Humidity 75    
Minimum Humidity 19    
Precipitation  
Precipitation 0.00 in 0.05 in 0.54 in (2013)
Month to date precipitation T 0.44  
Year to date precipitation 2.35 2.01  
Snow  
Snow 0.00 in 0.10 in - ()
Month to date snowfall 0.0 1.5  
Since 1 July snowfall 20.4 22.7  
Snow Depth 0.00 in    
Sea Level Pressure  
Sea Level Pressure 30.45 in    
Wind  
Wind Speed 10 mph (SSE)    
Max Wind Speed 20 mph    
Max Gust Speed 24 mph    
Visibility 10 miles    
Events      
T = Trace of Precipitation, MM = Missing Value Source: NWS Daily Summary

Daily Weather History Graph

Daily Weather History Graph

Search for Another Location

Airport:

Trip Planner

Search our weather history database for the weather conditions in past years. The results will help you decide how hot, cold, wet, or windy it might be!

Date:

Astronomy

Mar. 09, 2012 Rise Set
Actual Time 6:44 AM CST 6:24 PM CST
Civil Twilight 6:16 AM CST 6:51 PM CST
Nautical Twilight 5:44 AM CST 7:23 PM CST
Astronomical Twilight 5:12 AM CST 7:56 PM CST
Moon 8:27 PM CST (3/9) 7:02 AM CST (3/9)
Length of Visible Light 12h 34m
Length of Day
11h 39m
Full, 97% of the Moon is Illuminated
Mar 9
Full
Mar 14
Last Quarter
Mar 22
New
Mar 30
First Quarter
Apr 6
Full

Hourly Weather History & Observations

Time (CST) Temp. Windchill Dew Point Humidity Pressure Visibility Wind Dir Wind Speed Gust Speed Precip Events Conditions
12:52 AM 37.0 °F 31.6 °F 17.1 °F 44% 30.46 in 10.0 mi North 6.9 mph - N/A   Clear
1:52 AM 35.1 °F 29.3 °F 18.0 °F 50% 30.51 in 10.0 mi North 6.9 mph - N/A   Clear
2:52 AM 33.1 °F 30.0 °F 19.9 °F 59% 30.52 in 10.0 mi North 3.5 mph - N/A   Clear
3:52 AM 30.0 °F 25.2 °F 19.9 °F 66% 30.53 in 10.0 mi North 4.6 mph - N/A   Clear
4:52 AM 30.0 °F 25.2 °F 21.0 °F 69% 30.56 in 10.0 mi NNW 4.6 mph - N/A   Clear
5:52 AM 28.9 °F - 21.0 °F 72% 30.57 in 10.0 mi Calm Calm - N/A   Clear
6:52 AM 28.0 °F 24.2 °F 19.9 °F 72% 30.58 in 10.0 mi ENE 3.5 mph - N/A   Partly Cloudy
7:52 AM 30.9 °F 27.5 °F 21.0 °F 67% 30.59 in 10.0 mi East 3.5 mph - N/A   Clear
8:52 AM 35.1 °F 27.4 °F 19.9 °F 54% 30.60 in 10.0 mi SE 10.4 mph - N/A   Clear
9:52 AM 37.9 °F 30.5 °F 15.1 °F 39% 30.59 in 10.0 mi SE 11.5 mph - N/A   Clear
10:52 AM 42.1 °F 36.1 °F 16.0 °F 35% 30.56 in 10.0 mi SE 10.4 mph - N/A   Clear
11:52 AM 46.0 °F 41.9 °F 19.9 °F 35% 30.54 in 10.0 mi South 8.1 mph - N/A   Clear
12:52 PM 50.0 °F - 21.0 °F 32% 30.49 in 10.0 mi South 12.7 mph - N/A   Clear
1:52 PM 55.0 °F - 21.9 °F 28% 30.44 in 10.0 mi South 15.0 mph - N/A   Clear
2:52 PM 57.9 °F - 23.0 °F 26% 30.40 in 10.0 mi South 13.8 mph - N/A   Clear
3:52 PM 60.1 °F - 23.0 °F 24% 30.37 in 10.0 mi SSE 13.8 mph - N/A   Partly Cloudy
4:52 PM 60.1 °F - 23.0 °F 24% 30.32 in 10.0 mi SSE 18.4 mph - N/A   Partly Cloudy
5:52 PM 60.1 °F - 19.9 °F 21% 30.30 in 10.0 mi SSE 12.7 mph - N/A   Partly Cloudy
6:52 PM 59.0 °F - 17.1 °F 20% 30.30 in 10.0 mi South 11.5 mph - N/A   Partly Cloudy
7:52 PM 55.9 °F - 18.0 °F 23% 30.30 in 10.0 mi South 11.5 mph - N/A   Partly Cloudy
8:52 PM 55.0 °F - 18.0 °F 23% 30.30 in 10.0 mi South 13.8 mph - N/A   Clear
9:52 PM 53.1 °F - 19.0 °F 26% 30.29 in 10.0 mi South 13.8 mph - N/A   Clear
10:52 PM 51.1 °F - 19.9 °F 29% 30.29 in 10.0 mi South 12.7 mph - N/A   Clear
11:52 PM 51.1 °F - 21.0 °F 31% 30.28 in 10.0 mi South 16.1 mph - N/A   Clear